Location: Houston
(29.7630°N, 95.3630°W)
Time: 06:16:13
(UTC-06:00)

Daily predictions for brighter satellites

Satellite Brightness Start Highest point End
(mag) Time Altitude Azimuth Time Altitude Azimuth Time Altitude Azimuth
CSL-04 Rocket 3.6 17:39:28 10° SSE 17:44:42 71° ENE 17:50:00 10° N
Cosmos 332 Rocket 4.5 17:42:03 10° NNW 17:46:51 62° WSW 17:51:40 10° S
Cosmos 2082 Rocket 3.8 17:47:02 10° NNE 17:49:26 13° ENE 17:51:49 10° E
Cosmos 468 Rocket 3.9 17:47:16 10° NNW 17:52:26 75° ENE 17:57:32 10° SSE
ALOS 3.8 17:50:06 10° ESE 17:52:44 15° ENE 17:55:22 10° NE
Cosmos 405 Rocket 4.4 17:54:08 10° SE 17:56:22 15° E 17:58:35 10° NE
BREEZE-M DEB (TANK) 3.5 17:51:29 10° NW 17:58:56 41° NNE 18:02:09 10° E
SMAP 3.0 17:57:02 10° SSE 18:01:39 86° ENE 18:06:19 10° N
ERS-2 3.0 17:59:20 10° SE 18:02:31 28° ENE 18:05:42 10° NNE
Cosmos 972 Rocket 3.9 17:57:39 10° NNW 18:02:33 89° WSW 18:07:34 10° SSE
AQUARIUS 4.3 18:04:57 10° S 18:09:25 78° W 18:13:55 10° NNW
Cosmos 2233 Rocket 4.4 18:03:21 10° SSW 18:09:35 70° W 18:15:49 10° N
Cosmos 1908 Rocket 3.6 18:06:12 10° N 18:10:26 53° E 18:14:39 10° SSE
SKYMED 2 3.6 18:06:43 10° NNE 18:11:01 60° E 18:15:16 10° S
Meteor 1-10 Rocket 4.5 18:06:31 10° SSE 18:11:52 48° E 18:17:20 10° NNE
Cosmos 1763 Rocket 3.4 18:07:20 10° N 18:12:28 64° ENE 18:17:31 10° SSE
Cosmos 1733 Rocket 4.1 18:08:21 10° NNW 18:12:38 50° W 18:16:56 10° SSW
BREEZE-M DEB (TANK) 3.9 18:09:21 10° NW 18:19:42 57° SW 18:23:03 10° SSE
Cosmos 972 4.3 18:16:30 10° N 18:21:25 65° ENE 18:26:15 10° SSE
BREEZE-M R/B 4.5 18:20:11 10° N 18:22:35 17° NE 18:22:52 17° NE
Sich 1 Rocket 3.5 18:18:22 10° N 18:22:46 62° E 18:27:11 10° SSE
COSMOS 2406 4.5 18:18:38 10° NW 18:24:02 45° WSW 18:29:24 10° S
Cosmos 1814 Rocket 4.1 18:19:07 10° NNW 18:24:29 85° WSW 18:29:49 10° SSE
SL-27 R/B 2.9 18:21:44 10° N 18:24:48 33° ENE 18:27:52 10° SE
IUS-13 SRM-1 1.9 18:23:55 10° WSW 18:25:38 41° S 18:26:55 22° ESE
Cosmos 1503 Rocket 4.0 18:20:38 10° SSW 18:25:56 83° ESE 18:31:12 10° NNE
IRS-1A Rocket 4.4 18:23:37 10° SSE 18:29:28 82° WSW 18:35:16 10° NNW
Meteor 1-14 Rocket 4.4 18:24:04 10° N 18:29:42 76° W 18:35:12 10° S
Ariane Rocket 4.4 18:26:18 10° S 18:31:03 41° W 18:35:51 10° NNW
FENGYUN 3A 3.9 18:27:37 10° SE 18:32:42 43° ENE 18:37:47 10° N
Cosmos 968 Rocket 4.1 18:30:21 10° SSE 18:34:58 34° E 18:37:11 24° NE
CZ-4C R/B 4.3 18:31:14 10° N 18:35:39 16° NE 18:35:39 16° NE
Okean 1-7 3.1 18:31:27 10° S 18:35:48 84° W 18:40:12 10° N
Cosmos 1513 Rocket 4.4 18:31:20 10° S 18:37:37 70° E 18:43:50 10° N
CZ-4 R/B 2.9 18:36:40 10° SSW 18:40:17 36° W 18:43:52 10° NNW
Cosmos 2369 Rocket 4.1 18:38:34 10° SE 18:39:08 11° SE 18:39:08 11° SE
Cosmos 540 Rocket 3.7 18:36:55 10° N 18:41:49 42° ENE 18:46:40 10° SE
Cosmos 2297 3.9 18:36:18 10° SSW 18:41:58 74° WNW 18:47:42 10° NNE
Cosmos 1633 2.4 18:38:24 10° N 18:42:04 84° E 18:45:44 10° S
DMSP B5D1-3 4.4 18:40:06 10° NNE 18:45:17 84° ESE 18:50:25 10° SSW
USA 234 4.0 18:39:54 10° NNE 18:46:08 50° NW 18:52:22 10° WSW
Cosmos 841 Rocket 3.6 18:41:52 10° NNW 18:47:09 78° WSW 18:52:22 10° S
Cosmos 1833 Rocket 2.9 18:42:36 10° N 18:47:57 43° ENE 18:53:16 10° SE
Cosmos 2278 Rocket 4.3 18:43:31 10° WSW 18:48:01 24° WNW 18:52:33 10° N
Meteor 1-11 Rocket 4.2 18:43:13 10° NNE 18:48:33 36° ENE 18:53:45 10° SE
GPS 2-05 Rocket1 2.7 18:46:11 10° WSW 18:49:21 65° NNW 18:49:39 60° NNE
Cosmos 1891 Rocket 4.4 18:43:58 10° S 18:50:12 87° E 18:56:20 10° N
YAOGAN 1 3.9 18:49:47 10° S 18:53:52 41° W 18:57:59 10° NNW
MOS 1 4.4 18:48:22 10° S 18:54:03 78° WSW 18:59:47 10° NNW
Cosmos 1782 Rocket 3.6 18:50:29 10° N 18:54:50 78° W 18:59:11 10° S
COSMO-SKYMED 1 4.3 18:55:06 10° N 18:58:59 32° WNW 19:02:51 10° SW
Cosmos 1441 Rocket 3.2 18:56:08 10° S 19:00:06 86° W 19:01:41 35° N
SPOT 3 Rocket 3.6 18:56:29 10° S 19:01:42 79° WSW 19:06:56 10° NNW
OAO 3 Copernicus 4.5 18:58:27 10° WNW 19:03:27 54° N 19:04:13 49° NE
OAO 3 Rocket 3.1 18:58:54 10° WSW 19:03:50 89° NNW 19:04:51 57° ENE
Cosmos 2034 Rocket 4.2 19:04:13 10° S 19:10:33 75° W 19:16:56 10° N
ATLAS 2AS CENTAUR RB 4.4 19:09:23 10° WSW 19:15:07 15° SW 19:18:04 10° S
Nadezhda 4 Rocket 3.8 19:09:32 10° N 19:15:34 61° E 19:21:35 10° SSE
NOAA 12 4.5 19:11:54 10° S 19:17:10 64° WSW 19:22:27 10° NNW
ERBS 4.4 19:16:54 10° WNW 19:19:50 27° WSW 19:20:49 23° SSW
Tiangong 1 4.4 19:26:22 10° WSW 19:26:26 10° WSW 19:26:26 10° WSW
USA 229 DEB 3.5 19:22:24 10° SSW 19:29:05 75° ESE 19:30:03 64° ENE
USA 229 3.5 19:22:31 10° SSW 19:29:11 74° ESE 19:30:05 65° ENE
ALOS 3.6 19:25:25 10° SSW 19:29:46 39° W 19:34:09 10° NNW
Gblst 52 Del rocket 4.0 19:26:32 10° SW 19:32:01 84° SE 19:32:01 84° SE
Cosmos 2082 Rocket 2.3 19:28:22 10° NNW 19:34:01 71° WSW 19:38:09 19° S
Okean 2 Rocket 4.3 19:29:48 10° NNW 19:34:03 41° W 19:38:17 10° SSW
FengYun 1-2 T 4.2 19:31:53 10° SSE 19:37:59 71° NNW 19:42:56 10° NNW
Thor Agena Rocket 4.3 19:39:43 33° NNW 19:41:31 48° WNW 19:46:26 10° SW
Cosmos 2369 Rocket 4.3 20:19:23 10° SW 20:21:00 19° SW 20:21:00 19° SW
CZ-4C R/B 4.2 20:17:35 10° NNW 20:20:54 30° NNW 20:20:54 30° NNW
